Location: Austin
(30.3000°N, 97.7500°W)
Time: 12:28:48
(UTC-05:00)

USA 267 - Pass Details

Date: 26 May 2023
Orbit: 1102 x 1106 km, 123.0° (Epoch: 22 May)

Event Time Altitude Azimuth Distance (km) Brightness Sun altitude
Rises 22:00:11 0° 34° (NE) 3,922 6.2 -18.2°
Reaches altitude 10° 22:02:46 10° 28° (NNE) 2,962 5.7 -18.7°
Maximum altitude 22:08:55 45° 318° (NW) 1,455 4.4 -19.7°
Drops below altitude 10° 22:15:03 10° 248° (WSW) 2,952 5.8 -20.7°
Sets 22:17:37 0° 242° (WSW) 3,907 6.4 -21.1°
